Home   Weather   Ann Arbor   Past weeks

Flag for USA Past Weather in Ann Arbor, Michigan, USA — Yesterday and Last 2 Weeks

Now
23 °F

Light snow. Ice fog.


Feels Like: 18 °F
Forecast: 21 / 31 °F
Wind: 3 mph from Southeast

Location: Ann Arbor Municipal Airport

Current Time: Dec 11, 2016 at 5:03:35 am

Latest Report: Dec 11, 2016 at 4:02 am


Visibility: 2 mi

Pressure: 30.32 "Hg

Humidity: 92%

Dew Point: 21 °F

Location of Ann ArborLocation

Past Weather in Ann Arbor — Graph

°F

Ann Arbor Temperature Yesterday

Maximum temperature yesterday: 28 °F (at 1:53 pm)
Minimum temperature yesterday: 20 °F (at 6:53 am)
Average temperature yesterday: 23 °F

High & Low Weather Summary for the Past Weeks

 TemperatureHumidityPressure
High57 °F (Nov 29, 1:53 pm)100% (Nov 26, 11:53 pm)30.49 "Hg (Nov 26, 11:53 pm)
Low20 °F (Dec 10, 6:53 am)60% (Nov 29, 2:53 pm)29.38 "Hg (Nov 29, 12:53 am)
Average35 °F83%30.02 "Hg
* Reported Nov 26 4:53 am — Dec 11 4:02 am, Ann Arbor, Weather by CustomWeather, © 2016

Note: Actual official high and low records may vary slightly from our data, if they occured in-between our weather recording intervals... More about our weather records

Advertising

Ann Arbor Weather History for the Previous 24 Hours

Scroll right to see more
 ConditionsComfort  
Time TempWeatherWind HumidityBarometerVisibility
4:02 am
Sun, Dec 11
23 °FLight snow. Ice fog.3 mph92%30.32 "Hg2 mi
3:53 am23 °FLight snow. Ice fog.3 mph92%30.36 "Hg1 mi
2:53 am22 °FLight snow. Ice fog.5 mph96%30.38 "Hg1 mi
1:53 am22 °FLight snow. Ice fog.5 mph92%30.40 "Hg4 mi
12:53 am22 °FLight snow. Ice fog.6 mph89%30.40 "Hg3 mi
11:53 pm
Sat, Dec 10
23 °FOvercast.5 mph78%30.41 "Hg10 mi
10:53 pm22 °FOvercast.5 mph78%30.41 "Hg10 mi
9:53 pm23 °FPassing clouds.7 mph74%30.42 "Hg10 mi
8:53 pm22 °FPassing clouds.5 mph78%30.43 "Hg10 mi
7:53 pm22 °FClear.7 mph78%30.45 "Hg10 mi
6:53 pm23 °FClear.7 mph78%30.43 "Hg10 mi
5:53 pm24 °FPassing clouds.9 mph75%30.45 "Hg10 mi
4:53 pm24 °FMostly cloudy.13 mph75%30.44 "Hg10 mi
4:04 pm25 °FMostly cloudy.13 mph75%30.40 "Hg10 mi
2:53 pm26 °FPartly sunny.17 mph69%30.43 "Hg10 mi
1:53 pm28 °FMostly cloudy.16 mph66%30.42 "Hg10 mi
12:53 pm26 °FMore clouds than sun.21 mph66%30.44 "Hg10 mi
11:53 am25 °FBroken clouds.14 mph72%30.47 "Hg10 mi
10:53 am24 °FScattered clouds.14 mph77%30.48 "Hg10 mi
9:53 am22 °FLight snow. Mostly cloudy.12 mph82%30.49 "Hg5 mi
8:53 am21 °FLight snow. Ice fog.9 mph88%30.48 "Hg3 mi
7:53 am21 °FLight snow. Ice fog.10 mph88%30.48 "Hg5 mi
6:53 am20 °FPassing clouds.8 mph89%30.47 "Hg10 mi
6:02 am21 °FPassing clouds.9 mph88%30.43 "Hg10 mi
5:02 am22 °FMostly cloudy.9 mph85%30.42 "Hg10 mi
Weather by CustomWeather, © 2016

See weather overviewHow to use our weather pages